Location: Ditterswind
(50.1692°N, 10.6348°E)
Time: 01:16:57
(UTC+00:00)

STARLINK-1268 - Pass Details

Date: 07 June 2020
Orbit: 370 x 372 km, 53.0° (Epoch: 11 July)

Event Time Altitude Azimuth Distance (km) Brightness Sun altitude
Exits shadow 01:32:01 10° 259° (W) 1,435 5.4 -11.1°
Reaches altitude 10° 01:32:06 10° 260° (W) 1,404 5.3 -11.1°
Maximum altitude 01:35:13 68° 344° (NNW) 417 3.1 -10.8°
Drops below altitude 10° 01:38:22 10° 68° (ENE) 1,409 6.6 -10.6°
Sets 01:40:26 0° 71° (ENE) 2,263 7.7 -10.4°
